Flag for Benin Weather past 2 weeks in Porto Novo, Benin

Now
86 °F

Scattered clouds.


Feels Like: 99 °F
Forecast: 79 / 92 °F
Wind: 8 mph from Southwest

Location: Cotonou Airport

Current Time: Apr 18, 2015 at 10:39:28 AM

Latest Report: Apr 18, 2015 at 9:00 AM


Visibility: 5 mi

Pressure: 29.89 "Hg

Humidity: 79%

Dew point: 79 °F

Location of Porto NovoLocation

Historic Weather in Porto Novo — Graph

°F

Porto Novo temperature yesterday

Maximum temperature yesterday: 91 °F (at 1:00 PM)
Minimum temperature yesterday: 82 °F (at 1:00 AM)
Average temperature yesterday: 86 °F

Past Weeks' High & Low Weather Summary

 TemperatureHumidityPressure
High91 °F (Apr 7, 2:00 PM)94% (Apr 9, 9:00 AM)29.95 "Hg (Apr 9, 9:00 AM)
Low73 °F (Apr 9, 9:00 AM)62% (Apr 12, 4:00 PM)29.71 "Hg (Apr 4, 5:00 PM)
Average85 °F79%29.81 "Hg
* Reported Apr 3 9:00 AM — Apr 18 9:00 AM, Porto Novo, Weather by CustomWeather, © 2015

Note: Actual official high and low records may vary slightly from our data, if they occured in-between our weather recording intervals... More about our weather records

Advertising

Porto Novo weather history for previous 24 hours

 ConditionsComfort  
Time TempWeatherWind HumidityBarometerVisibility
9:00 AM
Sat, Apr 18
86 °FScattered clouds.8 mph79%29.89 "Hg5 mi
8:00 AM84 °FScattered clouds.10 mph79%29.86 "Hg4 mi
7:00 AM82 °FScattered clouds.9 mph84%29.83 "Hg4 mi
6:00 AM81 °FPassing clouds.3 mph89%29.83 "Hg4 mi
5:00 AM82 °FPassing clouds.No wind84%29.80 "Hg4 mi
4:00 AM82 °FPassing clouds.7 mph84%29.80 "Hg4 mi
3:00 AM82 °FPassing clouds.8 mph84%29.80 "Hg4 mi
2:00 AM84 °FPassing clouds.12 mph79%29.83 "Hg4 mi
1:00 AM84 °FPassing clouds.12 mph79%29.86 "Hg4 mi
12:00 AM84 °FPassing clouds.10 mph79%29.86 "Hg4 mi
11:00 PM
Fri, Apr 17
84 °FPassing clouds.10 mph79%29.89 "Hg4 mi
10:00 PM84 °FPassing clouds.10 mph79%29.86 "Hg4 mi
8:00 PM86 °FPassing clouds.10 mph75%29.83 "Hg4 mi
7:00 PM86 °FPassing clouds.6 mph75%29.83 "Hg4 mi
6:00 PM86 °FPassing clouds.8 mph75%29.80 "Hg4 mi
5:00 PM90 °FScattered clouds.10 mph67%29.77 "Hg4 mi
4:00 PM90 °FScattered clouds.14 mph71%29.77 "Hg4 mi
3:00 PM90 °FScattered clouds.13 mph67%29.77 "Hg4 mi
2:00 PM91 °FScattered clouds.12 mph67%29.83 "Hg4 mi
1:00 PM91 °FScattered clouds.9 mph67%29.86 "Hg4 mi
10:00 AM88 °FScattered clouds.9 mph75%29.89 "Hg5 mi
Weather by CustomWeather, © 2015

See weather overviewHow to use our weather pages